Location: Unspecified
(41.5000°N, 0.0000°E)
Time: 02:58:16
(UTC+00:00)

Vanguard 3 - Pass Details

Date: 19 June 2019
Orbit: 507 x 3264 km, 33.4° (Epoch: 19 July)

Event Time Altitude Azimuth Distance (km) Brightness Sun altitude
Rises 15:49:10 0° 264° (W) 3,951 11.6 39.7°
Reaches altitude 10° 15:52:48 10° 254° (WSW) 2,577 10.9 39.0°
Maximum altitude 15:57:33 27° 198° (SSW) 1,287 8.7 38.1°
Drops below altitude 10° 16:01:02 10° 138° (SE) 1,851 8.8 37.4°
Sets 16:03:13 0° 125° (SE) 2,640 9.4 37.0°
